Location: Palomar Mountain Lodge
(33.3110°N, 116.8495°W)
Time: 07:19:14
(UTC-07:00)

Cosmos 1452 Rocket - Pass Details

Date: 14 June 2018
Orbit: 768 x 774 km, 74.1° (Epoch: 22 September)

Event Time Altitude Azimuth Distance (km) Brightness Sun altitude
Rises 22:27:13 0° 343° (NNW) 3,251 8.0 -24.2°
Reaches altitude 10° 22:29:36 10° 343° (NNW) 2,321 6.9 -24.5°
Maximum altitude 22:34:53 89° 73° (ENE) 777 3.4 -25.1°
Enters shadow 22:35:20 75° 161° (SSE) 799 3.3 -25.2°
